Location: Armutcuk
(36.7660°N, 30.3977°E)
Time: 00:22:59
(UTC+00:00)

Daily predictions for brighter satellites

Satellite Brightness Start Highest point End
(mag) Time Altitude Azimuth Time Altitude Azimuth Time Altitude Azimuth
COSMOS 2428 4.0 01:04:12 10° N 01:09:30 38° ENE 01:14:47 10° SE
CZ-2C R/B 3.8 01:14:58 10° NNE 01:17:30 31° NNE 01:17:30 31° NNE
ATLAS 3B R/B 3.6 01:27:31 38° S 01:27:31 38° S 01:31:58 10° SSE
Cosmos 44 Rocket 4.1 01:26:28 49° E 01:26:28 49° E 01:30:59 10° NE
BREEZE-M DEB (TANK) 3.6 01:33:35 81° NW 01:33:40 82° NNW 01:46:43 10° NE
CZ-2C R/B 4.3 01:35:39 10° N 01:38:52 31° NNW 01:38:52 31° NNW
USA 229 DEB 4.5 01:39:49 10° NNW 01:47:17 60° NE 01:55:15 10° SE
Meteor 1-11 Rocket 4.2 01:43:22 10° N 01:49:16 66° E 01:55:10 10° SSE
Cosmos 1867 3.5 01:52:32 34° NNW 01:54:59 90° NE 02:00:25 10° SSE
Cosmos 1244 Rocket 4.4 01:54:59 54° SW 01:56:08 63° W 02:02:24 10° N
GP-B 3.5 02:00:52 50° NNW 02:00:52 50° NNW 02:04:14 10° N
Meteor 1-10 Rocket 4.2 02:02:12 55° W 02:02:27 56° W 02:07:53 10° N
NOAA 11 4.1 01:57:25 10° NNE 02:02:57 85° WNW 02:06:06 26° SSW
NOSS 3-1 (A) 4.2 01:55:53 10° NW 02:03:41 61° WSW 02:12:40 10° SSE
Sich 1 2.8 02:00:31 10° N 02:09:15 10° S 02:04:47 77° W
H-2A R/B 4.3 02:00:37 10° NE 02:05:04 26° E 02:09:27 10° SSE
Cosmos 1484 Rocket 2.7 02:05:18 10° NNE 02:08:55 71° ESE 02:09:41 52° SSE
BlueWalker 3 2.3 02:13:43 41° NNW 02:14:49 62° NE 02:18:39 10° ESE
Cosmos 2297 Rocket 2.1 02:13:12 31° SSW 02:15:57 74° WNW 02:21:37 10° NNE
Cosmos 2344 3.8 02:08:46 10° SSW 02:16:46 66° ESE 02:23:57 10° NE
Envisat 3.3 02:12:34 10° N 02:17:20 41° WNW 02:17:37 41° W
Cosmos 2219 4.3 02:20:53 10° S 02:26:15 46° ESE 02:31:37 10° NE
Cosmos 2237 Rocket 2.5 02:25:20 10° NNW 02:31:00 69° ENE 02:36:37 10° SSE
Cosmos 1939 Rocket 4.3 02:27:31 10° NNE 02:31:10 38° E 02:34:50 10° SSE
Cosmos 1536 4.3 02:30:33 10° NNW 02:39:26 - SSW 02:32:05 21° NW
OAO 2 Rocket 4.5 02:36:29 23° SW 02:37:30 24° SSW 02:41:28 10° SSE
SL-16 R/B 4.5 02:35:41 10° N 02:40:21 25° ENE 02:44:59 10° ESE
Okean 1 3.8 02:40:42 32° W 02:41:19 34° W 02:44:50 10° NNW
Nadezhda 1 Rocket 4.0 02:44:12 10° NNW 02:50:18 56° W 02:56:16 10° SSW
H-2A R/B 2.6 02:48:46 10° N 02:52:08 49° WNW 02:55:29 10° SSW
Cosmos 1726 2.0 02:48:45 10° N 02:52:10 79° E 02:55:36 10° S
IRS-1C 4.1 02:47:08 10° N 02:52:26 67° WNW 02:57:41 10° SSW
NOSS 0 Rocket 4.1 02:46:35 10° NW 02:52:33 49° WSW 02:58:29 10° S
Cosmos 1975 3.6 02:48:55 10° N 02:52:49 55° E 02:56:42 10° SSE
COSMOS 2428 3.6 02:48:50 10° NW 02:53:30 27° WSW 02:58:10 10° SSW
USA 215 3.2 02:47:16 10° SE 02:53:50 81° SW 03:00:25 10° NW
ERS-2 1.6 02:51:32 10° NNE 02:54:41 88° E 02:57:49 10° SSW
Cosmos 1151 Rocket 4.3 02:54:46 20° W 02:55:43 21° WNW 02:59:04 10° NNW
CZ-2C R/B 4.2 02:55:23 10° NW 02:56:50 12° WNW 02:56:50 12° WNW
Cosmos 2227 Rocket 2.3 02:57:17 10° SW 03:02:48 54° WNW 03:08:22 10° NNE
Cosmos 1515 Rocket 3.5 02:59:02 10° S 03:03:26 87° W 03:07:50 10° N
Meteor 2-20 Rocket 4.5 02:59:10 10° NNW 03:05:12 57° W 03:10:58 10° S
Cosmos 2263 Rocket 3.3 03:00:32 10° S 03:05:54 47° ESE 03:11:15 10° NE
Cosmos 1328 Rocket 4.1 03:02:29 10° SW 03:06:31 35° WNW 03:10:34 10° NNW
COSMO-SKYMED 1 3.1 03:03:36 10° SSE 03:07:53 64° ENE 03:12:11 10° N
ARIANE 5 R/B 2.6 03:03:50 10° N 03:08:39 49° WNW 03:13:26 10° SW
Cosmos 1666 Rocket 4.1 03:07:00 10° NNW 03:10:57 34° W 03:14:52 10° SSW
Cosmos 1733 3.0 03:07:18 10° NNW 03:10:59 72° W 03:14:36 10° S
Helios 1B rocket 3.4 03:10:44 10° NNE 03:14:36 49° E 03:18:27 10° S
Cosmos 1933 Rocket 4.1 03:12:45 10° N 03:17:03 62° E 03:21:20 10° SSE
Cosmos 1709 Rocket 4.4 03:13:27 10° SSW 03:19:28 43° WNW 03:25:30 10° N
Helios 1A 3.7 03:16:56 10° SSW 03:20:29 29° W 03:24:05 10° NW
CZ-2D R/B 3.9 03:18:40 10° N 03:22:49 44° WNW 03:26:57 10° SW
Cosmos 1269 Rocket 4.4 03:22:21 10° NNW 03:27:14 40° WSW 03:32:07 10° S
Cosmos 1238 4.4 03:24:47 10° NNW 03:27:41 45° W 03:30:45 10° SSW
Cosmos 2082 3.7 03:22:07 10° SSW 03:27:47 88° WNW 03:33:28 10° NNE
Meteor 2-4 Rocket 4.1 03:23:32 10° SSW 03:29:10 45° WNW 03:34:46 10° N
